Date String (YYYY-MM-DD hh:mm:ss) UTC,Instrument flags,Ambient pressure (hPa),Sample flow (lpm),Bypass flow (lpm),Sample temperature (°C),Ambient temperature (°C),ASC tube jacket temperature (°C),LED temperature (°C),Box temperature (°C),Sample RH (%),Span deviation,Mass concentration (μg/m³),Mass concentration (μg/m³),Mass concentration (μg/m³)
DateTimeUTC,F1_M11,P_M11,Q1_M11,Q2_M11,T1_M11,T2_M11,T3_M11,T4_M11,T5_M11,U1_M11,ZSPAN_M11,X0_M11,X2_M11,X1_M11
2022-07-17 07:00:00,,0830.9,4.99,0.00,29.8,28.8,00.0,38.5,31.7,29.1,0000.0,0012.56,0005.98,0004.85
2022-07-17 07:01:00,,0831.0,5.01,0.00,29.8,28.9,00.0,38.5,31.8,29.1,0000.0,0012.48,0005.93,0004.81
2022-07-17 07:02:00,,0831.0,4.99,0.00,29.9,28.9,00.0,38.6,31.9,29.2,0000.0,0012.92,0005.89,0004.79
2022-07-17 07:03:00,,0831.0,5.01,0.00,29.9,28.9,00.0,38.6,31.9,29.3,0000.0,0013.09,0005.92,0004.78
2022-07-17 07:04:00,,0831.0,5.01,0.00,29.9,28.5,00.0,38.5,31.9,29.3,0000.0,0012.97,0005.92,0004.76
2022-07-17 07:05:00,,0831.1,4.99,0.00,29.9,27.6,00.0,38.5,31.7,29.5,0000.0,0012.90,0005.97,0004.76
2022-07-17 07:06:00,,0831.0,5.01,0.00,29.8,27.1,00.0,38.4,31.6,29.7,0000.0,0013.34,0006.04,0004.76
2022-07-17 07:07:00,,0831.0,4.98,0.00,29.8,27.0,00.0,38.4,31.4,29.9,0000.0,0013.70,0006.02,0004.76
2022-07-17 07:08:00,,0831.0,5.01,0.00,29.6,27.1,00.0,38.4,31.3,30.1,0000.0,0013.25,0005.99,0004.76
2022-07-17 07:09:00,,0831.0,5.00,0.00,29.6,27.2,00.0,38.4,31.3,30.4,0000.0,0012.98,0005.95,0004.75
2022-07-17 07:10:00,,0831.0,5.00,0.00,29.6,27.4,00.0,38.4,31.3,30.5,0000.0,0013.45,0005.95,0004.74
2022-07-17 07:11:00,,0831.1,4.99,0.00,29.6,27.6,00.0,38.4,31.3,30.6,0000.0,0013.77,0005.90,0004.74
2022-07-17 07:12:00,,0831.0,5.01,0.00,29.5,27.8,00.0,38.4,31.4,30.7,0000.0,0013.76,0005.90,0004.74
2022-07-17 07:13:00,,0831.0,5.00,0.00,29.6,27.9,00.0,38.4,31.4,30.9,0000.0,0013.28,0005.90,0004.74
2022-07-17 07:14:00,,0831.0,4.99,0.00,29.6,28.1,00.0,38.4,31.5,31.0,0000.0,0013.58,0005.89,0004.74
2022-07-17 07:15:00,,0831.0,5.01,0.00,29.6,28.2,00.0,38.4,31.5,31.2,0000.0,0013.89,0005.92,0004.74
2022-07-17 07:16:00,,0831.0,5.00,0.00,29.6,28.3,00.0,38.4,31.5,31.3,0000.0,0014.87,0005.91,0004.74
2022-07-17 07:17:00,,0831.0,5.00,0.00,29.6,28.4,00.0,38.4,31.6,31.3,0000.0,0014.71,0005.89,0004.74
2022-07-17 07:18:00,,0831.0,4.99,0.00,29.6,28.5,00.0,38.4,31.6,31.4,0000.0,0014.24,0005.90,0004.73
2022-07-17 07:19:00,,0831.1,5.01,0.00,29.7,28.5,00.0,38.4,31.6,31.4,0000.0,0013.87,0005.87,0004.72
2022-07-17 07:20:00,,0831.1,5.00,0.00,29.7,28.6,00.0,38.4,31.7,31.4,0000.0,0014.10,0005.84,0004.72
2022-07-17 07:21:00,,0831.1,4.99,0.00,29.7,28.7,00.0,38.4,31.7,31.3,0000.0,0013.72,0005.86,0004.72
2022-07-17 07:22:00,,0831.1,4.99,0.00,29.7,28.7,00.0,38.5,31.7,31.2,0000.0,0013.33,0005.88,0004.71
2022-07-17 07:23:00,,0831.1,5.01,0.00,29.8,28.8,00.0,38.5,31.8,31.2,0000.0,0013.96,0005.89,0004.70
2022-07-17 07:24:00,,0831.1,4.99,0.00,29.8,28.8,00.0,38.5,31.8,31.2,0000.0,0013.89,0005.89,0004.69
2022-07-17 07:25:00,,0831.1,5.00,0.00,29.8,28.2,00.0,38.4,31.8,31.1,0000.0,0013.24,0005.91,0004.68
2022-07-17 07:26:00,,0831.0,4.99,0.00,29.8,27.6,00.0,38.4,31.7,31.0,0000.0,0012.89,0005.89,0004.68
2022-07-17 07:27:00,,0831.0,5.01,0.00,29.8,27.4,00.0,38.4,31.5,31.1,0000.0,0012.59,0005.87,0004.67
2022-07-17 07:28:00,,0831.0,5.00,0.00,29.7,27.5,00.0,38.4,31.4,31.2,0000.0,0012.94,0005.88,0004.67
2022-07-17 07:29:00,,0831.0,5.00,0.00,29.6,27.6,00.0,38.4,31.4,31.2,0000.0,0013.84,0005.89,0004.68
2022-07-17 07:30:00,,0831.1,5.00,0.00,29.6,27.7,00.0,38.4,31.4,31.1,0000.0,0014.02,0005.96,0004.69
2022-07-17 07:31:00,,0831.1,5.00,0.00,29.6,27.9,00.0,38.4,31.4,31.1,0000.0,0013.72,0005.99,0004.69
2022-07-17 07:32:00,,0831.1,5.01,0.00,29.6,28.0,00.0,38.4,31.5,31.0,0000.0,0013.62,0005.97,0004.70
2022-07-17 07:33:00,,0831.2,4.99,0.00,29.6,28.1,00.0,38.4,31.5,31.0,0000.0,0013.92,0005.98,0004.70
2022-07-17 07:34:00,,0831.1,4.99,0.00,29.6,28.2,00.0,38.4,31.5,30.9,0000.0,0014.24,0006.03,0004.72
2022-07-17 07:35:00,,0831.2,5.01,0.00,29.6,28.3,00.0,38.4,31.6,30.9,0000.0,0014.81,0006.09,0004.75
2022-07-17 07:36:00,,0831.2,5.00,0.00,29.7,28.4,00.0,38.4,31.6,31.0,0000.0,0015.28,0006.09,0004.76
2022-07-17 07:37:00,,0831.2,5.00,0.00,29.7,28.5,00.0,38.4,31.6,31.0,0000.0,0015.34,0006.10,0004.77
2022-07-17 07:38:00,,0831.2,5.00,0.00,29.7,28.6,00.0,38.4,31.7,31.0,0000.0,0015.21,0006.08,0004.78
2022-07-17 07:39:00,,0831.2,5.01,0.00,29.7,28.6,00.0,38.5,31.7,31.0,0000.0,0015.45,0006.10,0004.79
2022-07-17 07:40:00,,0831.2,5.00,0.00,29.8,28.7,00.0,38.5,31.7,31.0,0000.0,0014.71,0006.14,0004.80
2022-07-17 07:41:00,,0831.2,4.99,0.00,29.8,28.7,00.0,38.5,31.7,31.0,0000.0,0015.46,0006.12,0004.81
2022-07-17 07:42:00,,0831.2,5.01,0.00,29.8,28.6,00.0,38.5,31.7,30.9,0000.0,0015.98,0006.13,0004.82
2022-07-17 07:43:00,,0831.2,5.00,0.00,29.8,27.8,00.0,38.4,31.7,31.0,0000.0,0016.05,0006.16,0004.84
2022-07-17 07:44:00,,0831.2,5.00,0.00,29.8,27.4,00.0,38.4,31.6,31.0,0000.0,0015.62,0006.17,0004.85
2022-07-17 07:45:00,,0831.1,4.99,0.00,29.7,27.4,00.0,38.4,31.4,31.1,0000.0,0014.96,0006.13,0004.85
2022-07-17 07:46:00,,0831.1,5.00,0.00,29.6,27.4,00.0,38.4,31.4,31.3,0000.0,0014.89,0006.14,0004.85
2022-07-17 07:47:00,,0831.1,5.00,0.00,29.6,27.6,00.0,38.4,31.4,31.4,0000.0,0014.60,0006.12,0004.84
2022-07-17 07:48:00,,0831.1,5.01,0.00,29.6,27.7,00.0,38.4,31.4,31.4,0000.0,0015.79,0006.13,0004.84
2022-07-17 07:49:00,,0831.1,5.01,0.00,29.6,27.8,00.0,38.4,31.4,31.4,0000.0,0015.72,0006.21,0004.85
2022-07-17 07:50:00,,0831.1,5.00,0.00,29.6,28.0,00.0,38.4,31.4,31.2,0000.0,0015.35,0006.22,0004.85
2022-07-17 07:51:00,,0831.1,5.00,0.00,29.6,28.1,00.0,38.4,31.5,31.2,0000.0,0015.28,0006.20,0004.86
2022-07-17 07:52:00,,0831.1,5.00,0.00,29.6,28.2,00.0,38.4,31.5,31.2,0000.0,0014.42,0006.22,0004.86
2022-07-17 07:53:00,,0831.1,5.01,0.00,29.6,28.3,00.0,38.4,31.5,31.1,0000.0,0014.08,0006.26,0004.86
2022-07-17 07:54:00,,0831.1,5.01,0.00,29.6,28.4,00.0,38.4,31.6,31.0,0000.0,0014.36,0006.25,0004.85
2022-07-17 07:55:00,,0831.1,5.00,0.00,29.7,28.5,00.0,38.4,31.6,31.0,0000.0,0014.60,0006.27,0004.86
2022-07-17 07:56:00,,0831.1,5.00,0.00,29.7,28.5,00.0,38.4,31.6,31.0,0000.0,0014.90,0006.25,0004.88
2022-07-17 07:57:00,,0831.1,4.99,0.00,29.7,28.6,00.0,38.4,31.7,31.0,0000.0,0015.82,0006.24,0004.88
2022-07-17 07:58:00,,0831.0,5.01,0.00,29.7,28.7,00.0,38.5,31.7,30.9,0000.0,0017.08,0006.22,0004.87
2022-07-17 07:59:00,,0831.0,4.99,0.00,29.8,28.7,00.0,38.5,31.7,30.9,0000.0,0016.09,0006.22,0004.88
